Lincoln, NE

11:02 AM CST on December 10, 2016 (GMT -0600)
Lincoln Municipal

Weather History for KLNK - July, 2013

Change the Weather History Date:

Sunday, July 14, 2013

  Actual Average Record
Temperature  
Mean Temperature 80 °F 78 °F  
Max Temperature 88 °F 89 °F 107 °F (1936)
Min Temperature 72 °F 66 °F 49 °F (1990)
Degree Days  
Heating Degree Days 0 0  
Month to date heating degree days 0 0  
Since 1 June heating degree days 20 16  
Since 1 July heating degree days 0 0  
Cooling Degree Days 15 13  
Month to date cooling degree days 179 175  
Year to date cooling degree days 497 496  
Since 1 June cooling degree days 410 417  
Growing Degree Days 30 (Base 50)    
Moisture  
Dew Point 61 °F    
Average Humidity 54    
Maximum Humidity 73    
Minimum Humidity 34    
Precipitation  
Precipitation T in 0.11 in 1.15 in (1888)
Month to date precipitation T 1.63  
Year to date precipitation 18.34 16.32  
Snow  
Snow 0.00 in 0.00 in - ()
Month to date snowfall 0.0 0.0  
Since 1 July snowfall 0.0 0.0  
Snow Depth 0.00 in    
Sea Level Pressure  
Sea Level Pressure 30.02 in    
Wind  
Wind Speed 11 mph (SE)    
Max Wind Speed 20 mph    
Max Gust Speed 25 mph    
Visibility 10 miles    
Events Rain , Thunderstorm    
T = Trace of Precipitation, MM = Missing Value Source: NWS Daily Summary

Daily Weather History Graph

Daily Weather History Graph

Search for Another Location

Airport or City:

Trip Planner

Search our weather history database for the weather conditions in past years. The results will help you decide how hot, cold, wet, or windy it might be!

Date:

Astronomy

Jul. 14, 2013 Rise Set
Actual Time 6:07 AM CDT 8:57 PM CDT
Civil Twilight 5:35 AM CDT 9:30 PM CDT
Nautical Twilight 4:54 AM CDT 10:11 PM CDT
Astronomical Twilight 4:07 AM CDT 10:57 PM CDT
Moon 12:28 PM CDT (7/14) No Moon Set
Length of Visible Light 15h 54m
Length of Day
14h 50m
Waxing Crescent, 35% of the Moon is Illuminated
Jul 14
Waxing Crescent
Jul 15
First Quarter
Jul 22
Full
Jul 29
Last Quarter
Aug 6
New

Hourly Weather History & Observations

Time (CDT) Temp. Heat Index Dew Point Humidity Pressure Visibility Wind Dir Wind Speed Gust Speed Precip Events Conditions
12:54 AM 77.0 °F - 66.9 °F 71% 29.94 in 10.0 mi SSE 15.0 mph 23.0 mph 0.00 in   Scattered Clouds
1:51 AM 77.0 °F - 66.2 °F 69% 30.00 in 10.0 mi SSE 11.5 mph 19.6 mph 0.00 in Rain , Thunderstorm Light Rain
1:54 AM 77.0 °F - 66.0 °F 69% 29.96 in 10.0 mi SE 8.1 mph - 0.00 in Rain , Thunderstorm Light Rain
2:06 AM 77.0 °F - 66.2 °F 69% 30.00 in 10.0 mi SE 9.2 mph - 0.00 in   Mostly Cloudy
2:54 AM 75.9 °F - 64.9 °F 69% 29.97 in 10.0 mi SE 11.5 mph - 0.00 in   Clear
3:54 AM 73.9 °F - 64.0 °F 71% 29.97 in 10.0 mi SE 12.7 mph - N/A   Clear
4:54 AM 73.9 °F - 63.0 °F 68% 29.98 in 10.0 mi SSE 10.4 mph - N/A   Clear
5:54 AM 73.0 °F - 64.0 °F 73% 29.98 in 10.0 mi SE 9.2 mph 18.4 mph N/A   Clear
6:54 AM 72.0 °F - 63.0 °F 73% 29.98 in 10.0 mi SE 12.7 mph - N/A   Scattered Clouds
7:54 AM 72.0 °F - 62.1 °F 71% 29.97 in 10.0 mi SE 16.1 mph - N/A   Mostly Cloudy
8:54 AM 73.0 °F - 61.0 °F 66% 30.00 in 10.0 mi SE 16.1 mph 21.9 mph N/A   Scattered Clouds
9:54 AM 75.0 °F - 61.0 °F 62% 30.01 in 10.0 mi SE 19.6 mph - N/A   Mostly Cloudy
10:54 AM 77.0 °F - 63.0 °F 62% 30.03 in 10.0 mi SE 10.4 mph - N/A   Partly Cloudy
11:54 AM 82.0 °F 83.0 °F 62.1 °F 51% 30.04 in 10.0 mi SSE 11.5 mph 17.3 mph N/A   Scattered Clouds
12:54 PM 84.0 °F 83.8 °F 59.0 °F 43% 30.04 in 10.0 mi SSE 16.1 mph 19.6 mph N/A   Mostly Cloudy
1:54 PM 86.0 °F 85.4 °F 59.0 °F 40% 30.05 in 10.0 mi SE 11.5 mph 17.3 mph N/A   Mostly Cloudy
2:54 PM 86.0 °F 84.9 °F 57.0 °F 37% 30.04 in 10.0 mi SE 12.7 mph 18.4 mph N/A   Clear
3:54 PM 87.1 °F 86.1 °F 57.9 °F 37% 30.04 in 10.0 mi SE 9.2 mph 17.3 mph N/A   Clear
4:54 PM 88.0 °F 86.5 °F 55.9 °F 34% 30.03 in 10.0 mi SSE 10.4 mph 20.7 mph N/A   Clear
5:54 PM 86.0 °F 84.9 °F 57.0 °F 37% 30.03 in 10.0 mi SE 12.7 mph 19.6 mph N/A   Scattered Clouds
6:54 PM 84.0 °F 83.5 °F 57.9 °F 41% 30.03 in 10.0 mi ESE 11.5 mph - N/A   Clear
7:54 PM 82.0 °F 82.1 °F 59.0 °F 45% 30.04 in 10.0 mi ESE 13.8 mph - N/A   Clear
8:54 PM 79.0 °F - 57.0 °F 47% 30.07 in 10.0 mi ESE 9.2 mph - N/A   Clear
9:54 PM 77.0 °F - 57.9 °F 52% 30.10 in 10.0 mi ESE 8.1 mph - N/A   Clear
10:54 PM 75.9 °F - 59.0 °F 56% 30.12 in 10.0 mi ESE 5.8 mph - N/A   Clear
11:54 PM 73.9 °F - 60.1 °F 62% 30.13 in 10.0 mi ESE 4.6 mph - N/A   Clear